Location: Asheville, NC
(35.6000°N, 82.5500°W)
Time: 16:01:17
(UTC-05:00)

Iridium 28 - Pass Details

Date: 10 January 2018
Orbit: 772 x 774 km, 86.4° (Epoch: 15 January)

Event Time Altitude Azimuth Distance (km) Brightness Sun altitude
Rises 06:52:50 0° 193° (SSW) 3,230 8.8 -9.7°
Reaches altitude 10° 06:55:13 10° 198° (SSW) 2,307 8.0 -9.2°
Maximum altitude 07:00:15 53° 275° (W) 944 5.6 -8.2°
Drops below altitude 10° 07:05:19 10° 352° (N) 2,320 7.7 -7.3°
Sets 07:07:44 0° 357° (N) 3,250 8.5 -6.8°
